Regional Weather Roundup
Issued by NWS

Home | Current Version | Previous Version | Graphics & Text | Print | Product List | Glossary On
Versions: 1 2 3 4 5 6 7 8 9 10 11 12 13 14 15 16 17 18 19 20 21 22 23 24 25 26 27 28 29 30 31 32 33 34 35 36 37 38 39 40 41 42 43 44 45 46 47 48 49 50
000
ASUS43 KLOT 300004
RWRIL

ILLINOIS REGIONAL WEATHER ROUNDUP
NATIONAL WEATHER SERVICE CHICAGO/ROMEOVILLE IL
700 PM CDT FRI JUL 29 2016

NOTE: "FAIR" INDICATES FEW OR NO CLOUDS BELOW 12,000 FEET WITH NO
SIGNIFICANT WEATHER AND/OR OBSTRUCTIONS TO VISIBILITY.

* THESE STATIONS ARE NOT UNDER NWS QUALITY CONTROL. THEY ALSO MAY NOT
  REPORT WEATHER SUCH AS PRECIPITATION OR FOG.

ILZ001-002-007-009-015-016-024-300100-
NORTHWEST ILLINOIS

CITY           SKY/WX    TMP DP  RH WIND       PRES   REMARKS
MOLINE         MOSUNNY   78  67  68 N5        29.92S HX  80
6HR MIN TEMP:  74; 6HR MAX TEMP:  84; 6HR PCP:  0.14;

STERLING*      LGT RAIN  69  68  96 E8        29.95S
SAVANNA*       CLOUDY    74  67  78 E13       29.95R
$$

ILZ003-004-008-010-011-017-018-300100-
NORTH CENTRAL ILLINOIS

CITY           SKY/WX    TMP DP  RH WIND       PRES   REMARKS
ROCKFORD       CLOUDY    71  67  87 E10       29.97R
6HR MIN TEMP:  67; 6HR MAX TEMP:  78; 6HR PCP:  0.94;

FREEPORT*      PTSUNNY   72  66  82 E7        29.98R
ROCHELLE*      CLOUDY    72  68  89 NE8       29.96R
DE KALB*       CLOUDY    71  68  89 NE8       29.96S
$$

ILZ005-006-012>014-019>023-300100-
NORTHEAST ILLINOIS

CITY           SKY/WX    TMP DP  RH WIND       PRES   REMARKS
CHICAGO-OHARE  CLOUDY    73  68  84 NE10      29.93S
6HR MIN TEMP:  72; 6HR MAX TEMP:  79; 6HR PCP:  0.11;

CHICAGO-MIDWAY CLOUDY    75  66  73 NE7       29.92S
6HR MIN TEMP:  73; 6HR MAX TEMP:  79; 6HR PCP:  0.32;

AURORA         CLOUDY    74  68  81 NE8       29.94R
6HR MIN TEMP:  71; 6HR MAX TEMP:  84; 6HR PCP:  0.34;

LANSING*       CLOUDY    71  66  85 N5        29.92S
WAUKEGAN       LGT RAIN  70  67  90 NE8       29.95S
6HR MIN TEMP:  70; 6HR MAX TEMP:  77; 6HR PCP:  0.03;

DUPAGE AIRPORT CLOUDY    73  67  81 NE10      29.94R
6HR MIN TEMP:  72; 6HR MAX TEMP:  82; 6HR PCP:  0.53;

KANKAKEE*      SUNNY     73  67  81 SE8       29.90F
WHEELING       PTSUNNY   73  67  81 NE12      29.95S
6HR MIN TEMP:  72; 6HR MAX TEMP:  79; 6HR PCP:  0.04;

MORRIS*        CLOUDY    72  70  94 CALM      29.91S FOG
NORTHERLY ISL    N/A     73  66  78 NE5         N/A
$$

LMZ740>746-300100-
SOUTHERN LAKE MICHIGAN

STATION/POSITION SKY/WX   TEMP    WIND        PRES    VSBY  WAVE
                          AIR SEA DIR/SP/G                  HT/PER
                          (F)     (DEG/KT/KT) (MB)    (MI)  (FT/S)
SOUTHERN BUOY              73 74   60/ 16/ 17 1013.4          3/ 5
WILMETTE HARBOR            73 72   60/ 12/ 16   N/A           4/ 5
HARRISON CRIB              72     100/  7/  8   N/A
BURNHAM HARBOR             72      20/  5/  7   N/A
BURNS HARBOR               71      20/  3/ 12 1013.9S
MICHIGAN CITY              71     330/  6/  7   N/A
MICHIGAN CITY 6N           71 77  350/  8/ 10   N/A           2/ 5
ST. JOSEPH                 73 76   20/  6/ 10 1013.3S         2
$$

ILZ025>027-034>036-040-047-049-050-058-095>099-300100-
WEST-CENTRAL ILLINOIS

CITY           SKY/WX    TMP DP  RH WIND       PRES   REMARKS
QUINCY         SUNNY     78  67  68 NW8       29.94S HX  80
GALESBURG*     PTSUNNY   77  67  72 W8        29.93S
MACOMB*        SUNNY     75  66  72 W8        29.95F
JACKSONVILLE*  SUNNY     79  66  65 NW6       29.93S HX  81
$$

ILZ028>032-037-038-041>044-048-051>054-059>061-300100-
CENTRAL ILLINOIS

CITY           SKY/WX    TMP DP  RH WIND       PRES   REMARKS
PONTIAC        PTSUNNY   76  71  86 NE6       29.92S
BLOOMINGTON    MOSUNNY   78  67  68 W8        29.93S HX  80
DECATUR        PTSUNNY   82  68  62 NW6       29.91F HX  85
PEORIA         SUNNY     79  67  66 W8        29.92S HX  81
6HR MIN TEMP:  77; 6HR MAX TEMP:  82;

LACON*         HVY RAIN  72  67  84 NE8       29.93R
LINCOLN*       MOSUNNY   80  69  67 NW5       29.92S HX  83
SPRINGFIELD    MOSUNNY   81  68  64 NW7       29.92S HX  84
6HR MIN TEMP:  80; 6HR MAX TEMP:  84;

TAYLORVILLE    PTSUNNY   78  69  72 MISG      29.92S HX  81
6HR MIN TEMP:  77; 6HR MAX TEMP:  81;

$$

ILZ033-039-045-046-055>057-062-063-300100-
EAST-CENTRAL ILLINOIS

CITY           SKY/WX    TMP DP  RH WIND       PRES   REMARKS
CHAMPAIGN      PTSUNNY   79  70  74 W8        29.91F HX  82
MATTOON        SUNNY     79  67  66 NW8       29.90F HX  81
PARIS*         PTSUNNY   80  71  73 NW3       29.91S HX  84
$$

ILZ079-100>102-300100-
SOUTHWEST ILLINOIS

CITY           SKY/WX    TMP DP  RH WIND       PRES   REMARKS
BELLEVILLE     PTSUNNY   83  71  66 NE1       29.90R HX  87
CAHOKIA*       CLOUDY    84  68  58 CALM      29.90S HX  87
SPARTA*        CLOUDY    81  73  76 CALM      29.93R HX  85
$$

ILZ064>066-069>071-074>076-080>082-084>086-088>090-092>094-300100-
SOUTH-CENTRAL ILLINOIS

CITY           SKY/WX    TMP DP  RH WIND       PRES   REMARKS
CARBONDALE     CLOUDY    77  73  87 CALM      29.91F
6HR MIN TEMP:  71; 6HR MAX TEMP:  86; 6HR PCP:  0.65;

CAIRO*         CLOUDY    75  71  87 W17G30    29.94R THUNDER
EFFINGHAM*     CLOUDY    80  71  73 W6        29.92F HX  83
MARION         PTSUNNY   79  75  89 CALM      29.92S HX  82
MT. VERNON     CLOUDY    81  70  69 CALM      29.91S HX  84
CENTRALIA*     PTSUNNY   82  71  70 NW7       29.91S HX  86
SALEM*         CLOUDY    82  70  67 NW3       29.91S HX  86
METROPOLIS*    CLOUDY    78  73  85 CALM      29.91F HX  81
$$

ILZ067-068-072-073-078-083-087-091-300100-
SOUTHEAST ILLINOIS

CITY           SKY/WX    TMP DP  RH WIND       PRES   REMARKS
LAWRENCEVILLE  MOSUNNY   80  74  81 W5          N/A  HX  85
FLORA*         MOSUNNY   82  71  71 N5        29.91S HX  86
FAIRFIELD*     PTSUNNY   79  74  84 CALM      29.89S HX  82
HARRISBURG*    CLOUDY    79  75  87 SW3       29.91S HX  83
ROBINSON*      PTSUNNY   80  71  75 NW8       29.90S HX  83
CARMI*         PTSUNNY   78  73  85 CALM      29.90S HX  80
$$

ABBREVIATIONS USED IN REMARKS
   TC - TEMPERATURE IN CELSIUS
  WCI - WIND CHILL INDEX
   HX - HEAT INDEX
  VSB - VISIBILITY
$$




USA.gov is the U.S. government's official web portal to all federal, state and local government web resources and services.